This is the latest recevied weather packets stored in our database for station/object KE5WTH-14. If no packets are shown the sender has not sent any weather packets the latest 10 day(s).
| Time | Temp. | Humidity | Pressure | Rain* | Wind** | Luminosity | Snow |
|---|---|---|---|---|---|---|---|
| 1778107113 | 16.67° C | 74% | 1014 hPa | 0 mm | - | 169 W/m² | - |
| 1778107053 | 16.67° C | 74% | 1013.9 hPa | 0 mm | - | 153 W/m² | - |
| 1778106998 | 16.67° C | 74% | 1014 hPa | 0 mm | - | 153 W/m² | - |
| 1778106941 | 16.67° C | 74% | 1014 hPa | 0 mm | - | 125 W/m² | - |
| 1778106910 | 16.67° C | 74% | 1014 hPa | 0 mm | - | 121 W/m² | - |
| 1778106881 | 16.67° C | 74% | 1013.9 hPa | 0 mm | - | 130 W/m² | - |
| 1778106850 | 16.67° C | 74% | 1013.9 hPa | 0 mm | - | 142 W/m² | - |
| 1778106691 | 16.67° C | 74% | 1014 hPa | 0 mm | - | 157 W/m² | - |
| 1778106629 | 16.67° C | 74% | 1013.9 hPa | 0 mm | - | 193 W/m² | - |
| 1778106567 | 16.67° C | 74% | 1014 hPa | 0 mm | - | 204 W/m² | - |
| 1778106507 | 16.67° C | 74% | 1013.9 hPa | 0 mm | - | 178 W/m² | - |
| 1778106446 | 16.67° C | 74% | 1014 hPa | 0 mm | - | 167 W/m² | - |
| 1778106384 | 16.67° C | 74% | 1014 hPa | 0 mm | - | 172 W/m² | - |
| 1778106326 | 16.67° C | 74% | 1014 hPa | 0 mm | - | 186 W/m² | - |
| 1778106266 | 16.67° C | 74% | 1014 hPa | 0 mm | - | 188 W/m² | - |
| 1778106205 | 16.67° C | 74% | 1014 hPa | 0 mm | - | 195 W/m² | - |
| 1778106145 | 16.67° C | 74% | 1014.1 hPa | 0 mm | - | 195 W/m² | - |
| 1778106077 | 16.67° C | 74% | 1013.9 hPa | 0 mm | - | 181 W/m² | - |
| 1778106015 | 16.67° C | 74% | 1013.9 hPa | 0 mm | - | 183 W/m² | - |
| 1778105956 | 16.67° C | 74% | 1013.8 hPa | 0 mm | - | 195 W/m² | - |
| 1778105895 | 16.67° C | 74% | 1013.8 hPa | 0 mm | - | 195 W/m² | - |
| 1778105832 | 16.67° C | 74% | 1013.8 hPa | 0 mm | - | 199 W/m² | - |
| 1778105771 | 16.67° C | 75% | 1013.7 hPa | 0 mm | - | 185 W/m² | - |
| 1778105709 | 16.67° C | 74% | 1013.7 hPa | 0 mm | - | 193 W/m² | - |
| 1778105649 | 16.67° C | 74% | 1013.8 hPa | 0 mm | - | 216 W/m² | - |
* Rain latest hour (hover to see other rain measurements)
** Current wind speed in m/s (hover to see current wind gust speed)